FW8496 Weather Reports


Display with metric or nautical units.
time (UTC)temp
F
wind
direction
speed
MPH
gust
MPH
rain 1hr
in
rain 24hr
in
rain mn
in
humidity
%
barometer
mb
20260503203542 72 229 4.0 18.0 0.00 0.00 0.00 21 1018.9
20260503203049 71 289 8.0 18.0 0.00 0.00 0.00 21 1018.9
20260503202542 72 275 11.0 18.0 0.00 0.00 0.00 20 1018.9
20260503202042 72 272 7.0 17.0 0.00 0.00 0.00 20 1019.0
20260503201551 72 273 9.0 17.0 0.00 0.00 0.00 20 1018.9
20260503201042 73 265 5.0 12.0 0.00 0.00 0.00 19 1019.2
20260503200545 73 263 4.0 13.0 0.00 0.00 0.00 19 1019.2
20260503200048 72 214 6.0 19.0 0.00 0.00 0.00 20 1019.3
20260503195542 72 206 9.0 19.0 0.00 0.00 0.00 20 1019.4
20260503195043 72 263 6.0 15.0 0.00 0.00 0.00 20 1019.5
20260503194553 72 219 6.0 14.0 0.00 0.00 0.00 20 1019.6
20260503194043 71 294 5.0 15.0 0.00 0.00 0.00 21 1019.7
20260503193543 71 182 5.0 15.0 0.00 0.00 0.00 21 1019.8
20260503193056 70 244 5.0 14.0 0.00 0.00 0.00 21 1019.8
20260503192542 70 300 4.0 14.0 0.00 0.00 0.00 22 1019.8
20260503192043 72 338 8.0 14.0 0.00 0.00 0.00 21 1019.9
20260503191550 74 300 6.0 11.0 0.00 0.00 0.00 20 1020.0
20260503191043 75 225 2.0 7.0 0.00 0.00 0.00 19 1020.1
20260503190543 75 96 3.0 11.0 0.00 0.00 0.00 20 1020.1
20260503190051 74 143 5.0 11.0 0.00 0.00 0.00 21 1020.2
20260503185542 73 165 5.0 11.0 0.00 0.00 0.00 21 1020.3
20260503185043 72 128 2.0 9.0 0.00 0.00 0.00 20 1020.4
20260503184603 70 207 2.0 9.0 0.00 0.00 0.00 21 1020.6
20260503184044 69 94 2.0 8.0 0.00 0.00 0.00 21 1020.7
20260503183541 69 315 3.0 12.0 0.00 0.00 0.00 21 1020.7
20260503183051 69 313 3.0 12.0 0.00 0.00 0.00 21 1021.0
20260503182548 69 300 5.0 12.0 0.00 0.00 0.00 21 1021.1
20260503182046 70 13 3.0 8.0 0.00 0.00 0.00 18 1021.1
20260503181552 70 303 2.0 9.0 0.00 0.00 0.00 21 1021.3
20260503181043 69 197 3.0 9.0 0.00 0.00 0.00 20 1021.4
20260503180544 69 232 2.0 7.0 0.00 0.00 0.00 21 1021.4
20260503180054 68 261 3.0 9.0 0.00 0.00 0.00 25 1021.5
20260503175543 67 259 3.0 9.0 0.00 0.00 0.00 25 1021.5
20260503175042 67 278 5.0 9.0 0.00 0.00 0.00 26 1021.5
20260503174604 66 164 1.0 8.0 0.00 0.00 0.00 28 1021.5
20260503174042 64 120 2.0 8.0 0.00 0.00 0.00 28 1021.7
20260503173542 63 311 2.0 12.0 0.00 0.00 0.00 28 1021.7
20260503173046 63 59 5.0 12.0 0.00 0.00 0.00 28 1021.9
20260503172541 64 323 6.0 10.0 0.00 0.00 0.00 30 1021.9
20260503172041 64 339 2.0 9.0 0.00 0.00 0.00 31 1021.8
20260503171546 64 243 3.0 9.0 0.00 0.00 0.00 31 1021.9
20260503171042 63 315 5.0 13.0 0.00 0.00 0.00 29 1022.0
20260503170542 62 329 5.0 13.0 0.00 0.00 0.00 29 1022.0
20260503150542 54 9 2.0 6.0 0.00 0.00 0.00 50 1022.9
20260503131045 40 93 0.0 3.0 0.00 0.00 0.00 85 1023.3
20260503130542 39 0 0.0 3.0 0.00 0.00 0.00 85 1023.2
20260503110542 38 101 1.0 3.0 0.00 0.00 0.00 80 1022.7
20260503100110 39 101 3.0 6.0 0.00 0.00 0.00 76 1022.9
20260503081552 41 101 0.0 2.0 0.00 0.00 0.00 70 1023.3
20260503081041 41 101 0.0 2.0 0.00 0.00 0.00 70 1023.3
20260503080542 42 0 0.0 3.0 0.00 0.00 0.00 70 1023.4
20260503072542 43 0 1.0 7.0 0.00 0.00 0.00 68 1023.7
20260503072046 43 0 1.0 7.0 0.00 0.00 0.00 68 1023.7
20260503071552 43 146 2.0 5.0 0.00 0.00 0.00 68 1023.7
20260503071041 44 117 1.0 5.0 0.00 0.00 0.00 68 1023.6
20260503070541 44 120 1.0 7.0 0.00 0.00 0.00 68 1023.6
20260503055041 46 128 4.0 10.0 0.00 0.00 0.00 65 1023.5
20260503054545 46 148 6.0 10.0 0.00 0.00 0.00 65 1023.7
20260503054041 46 103 4.0 10.0 0.00 0.00 0.00 64 1023.7
20260503053541 46 132 3.0 12.0 0.00 0.00 0.00 64 1023.7
20260503053055 46 142 7.0 12.0 0.00 0.00 0.00 64 1023.6
20260503052542 47 123 5.0 11.0 0.00 0.00 0.00 64 1023.6
20260503052042 47 146 7.0 11.0 0.00 0.00 0.00 64 1023.5
20260503051552 47 143 6.0 12.0 0.00 0.00 0.00 63 1023.6
20260503051042 47 132 6.0 12.0 0.00 0.00 0.00 63 1023.5
20260503050542 47 144 6.0 13.0 0.00 0.00 0.00 63 1023.4
20260503050053 47 148 6.0 13.0 0.00 0.00 0.00 63 1023.4
20260503045542 47 141 6.0 14.0 0.00 0.00 0.00 63 1023.3
20260503045041 47 130 6.0 14.0 0.00 0.00 0.00 62 1023.2
20260503044553 48 130 7.0 14.0 0.00 0.00 0.00 62 1023.1
20260503044042 48 130 7.0 13.0 0.00 0.00 0.00 62 1023.2
20260503043542 48 134 7.0 13.0 0.00 0.00 0.00 61 1023.1
20260503043053 48 142 7.0 14.0 0.00 0.00 0.00 61 1023.1
20260503042542 48 122 7.0 14.0 0.00 0.00 0.00 60 1023.1
20260503042042 49 158 7.0 13.0 0.00 0.00 0.00 59 1023.1
20260503041553 49 129 7.0 13.0 0.00 0.00 0.00 58 1023.1
20260503041042 49 126 7.0 16.0 0.00 0.00 0.00 58 1023.1
20260503040542 50 134 8.0 16.0 0.00 0.00 0.00 57 1023.0
20260503040049 50 161 8.0 15.0 0.00 0.00 0.00 55 1023.0
20260503035542 50 134 7.0 14.0 0.00 0.00 0.00 53 1023.0
20260503035042 50 142 7.0 14.0 0.00 0.00 0.00 51 1023.0
20260503034603 51 138 5.0 12.0 0.00 0.00 0.00 51 1023.0
20260503034044 51 121 6.0 12.0 0.00 0.00 0.00 50 1022.9
20260503033545 51 130 7.0 15.0 0.00 0.00 0.00 48 1022.8
20260503033053 51 169 6.0 15.0 0.00 0.00 0.00 46 1022.8
20260503032542 52 180 5.0 11.0 0.00 0.00 0.00 45 1022.8
20260503032044 52 169 5.0 11.0 0.00 0.00 0.00 43 1022.7
20260503031553 52 150 5.0 11.0 0.00 0.00 0.00 41 1022.6
20260503031042 52 155 5.0 11.0 0.00 0.00 0.00 40 1022.4
20260503030542 53 158 4.0 11.0 0.00 0.00 0.00 39 1022.1
20260503030053 53 181 6.0 12.0 0.00 0.00 0.00 39 1022.0
20260503025541 53 157 6.0 12.0 0.00 0.00 0.00 37 1022.0
20260503025042 53 162 7.0 12.0 0.00 0.00 0.00 36 1022.0
20260503024557 54 130 4.0 9.0 0.00 0.00 0.00 35 1021.8
20260503024043 54 147 3.0 6.0 0.00 0.00 0.00 34 1021.7
20260503023544 55 153 3.0 6.0 0.00 0.00 0.00 33 1021.7
20260503023051 55 155 3.0 6.0 0.00 0.00 0.00 32 1021.7
20260503022542 56 157 3.0 6.0 0.00 0.00 0.00 31 1021.7
20260503022042 56 157 3.0 6.0 0.00 0.00 0.00 31 1021.5
20260503021558 57 165 2.0 6.0 0.00 0.00 0.00 30 1021.5
20260503021042 58 157 3.0 6.0 0.00 0.00 0.00 29 1021.5
20260503020542 58 175 2.0 5.0 0.00 0.00 0.00 28 1021.4
20260503020056 59 179 2.0 5.0 0.00 0.00 0.00 28 1021.5
20260503015541 59 181 1.0 6.0 0.00 0.00 0.00 27 1021.3
20260503015043 60 186 2.0 6.0 0.00 0.00 0.00 27 1021.3
20260503014608 60 196 2.0 5.0 0.00 0.00 0.00 25 1021.2
20260503014042 61 206 2.0 7.0 0.00 0.00 0.00 25 1021.2
20260503013542 61 196 2.0 8.0 0.00 0.00 0.00 24 1021.1
20260503013050 61 200 3.0 10.0 0.00 0.00 0.00 24 1021.1
20260503012542 62 240 3.0 10.0 0.00 0.00 0.00 24 1021.1
20260503012041 62 209 4.0 10.0 0.00 0.00 0.00 23 1021.1
20260503011556 63 256 5.0 10.0 0.00 0.00 0.00 23 1021.0
20260503011042 63 264 5.0 10.0 0.00 0.00 0.00 23 1021.0
20260503010542 64 223 3.0 8.0 0.00 0.00 0.00 22 1021.0
20260503010055 65 202 3.0 9.0 0.00 0.00 0.00 22 1021.0
20260503005545 65 194 3.0 9.0 0.00 0.00 0.00 22 1021.0
20260503005042 66 181 4.0 9.0 0.00 0.00 0.00 21 1021.0
20260503004552 66 282 1.0 5.0 0.00 0.00 0.00 20 1020.9
20260503004046 66 317 2.0 8.0 0.00 0.00 0.00 20 1020.9
20260503003543 66 263 3.0 8.0 0.00 0.00 0.00 20 1021.0
20260503003104 66 302 2.0 9.0 0.00 0.00 0.00 20 1021.0
20260503002542 67 287 4.0 9.0 0.00 0.00 0.00 20 1020.9
20260503002042 67 258 1.0 8.0 0.00 0.00 0.00 19 1020.9
20260503001614 67 232 3.0 9.0 0.00 0.00 0.00 20 1020.9
20260503001044 67 262 4.0 11.0 0.00 0.00 0.00 20 1020.9
20260503000544 67 236 5.0 15.0 0.00 0.00 0.00 20 1020.9
20260503000110 67 291 3.0 15.0 0.00 0.00 0.00 20 1020.9
20260502235542 68 259 2.0 11.0 0.00 0.03 0.00 21 1020.9
20260502235042 68 268 5.0 12.0 0.00 0.03 0.00 20 1020.9
20260502234555 68 189 6.0 12.0 0.00 0.03 0.00 20 1020.9
20260502234043 68 197 2.0 10.0 0.00 0.03 0.00 20 1021.1
20260502233542 68 219 5.0 12.0 0.00 0.03 0.00 20 1021.1
20260502233052 68 235 5.0 14.0 0.00 0.03 0.00 20 1021.0
20260502232544 69 207 7.0 14.0 0.00 0.03 0.00 20 1021.1
20260502232042 70 307 2.0 12.0 0.00 0.03 0.00 20 1021.0
20260502231553 70 291 4.0 12.0 0.00 0.03 0.00 20 1021.1
20260502231042 70 224 5.0 11.0 0.00 0.03 0.00 20 1021.0
20260502230543 70 290 2.0 11.0 0.00 0.03 0.00 20 1021.1
20260502230053 70 226 5.0 12.0 0.00 0.03 0.00 20 1021.0
20260502225542 69 204 3.0 12.0 0.00 0.03 0.00 19 1021.0
20260502225042 69 142 3.0 13.0 0.00 0.03 0.00 20 1021.1
20260502224555 69 200 4.0 13.0 0.00 0.03 0.00 19 1021.0
20260502224042 69 197 6.0 11.0 0.00 0.03 0.00 20 1021.0
20260502223542 70 198 4.0 12.0 0.00 0.03 0.00 19 1021.1
20260502223045 70 184 5.0 12.0 0.00 0.03 0.00 20 1021.1
20260502222543 70 197 6.0 10.0 0.00 0.03 0.00 19 1021.1
20260502222044 70 0 2.0 8.0 0.00 0.03 0.00 20 1021.3
20260502221549 70 225 0.0 11.0 0.00 0.03 0.00 21 1021.3
20260502221042 69 258 2.0 11.0 0.00 0.03 0.00 20 1021.4
20260502220545 68 231 2.0 11.0 0.00 0.03 0.00 22 1021.5
20260502220048 68 248 5.0 11.0 0.00 0.03 0.00 21 1021.6
20260502215543 68 207 7.0 14.0 0.00 0.03 0.00 21 1021.7
20260502215044 69 265 5.0 14.0 0.00 0.03 0.00 21 1021.8
20260502214602 69 171 4.0 13.0 0.00 0.03 0.00 22 1021.8
20260502214042 69 241 6.0 13.0 0.00 0.03 0.00 23 1021.9
20260502213546 69 159 5.0 12.0 0.00 0.03 0.00 23 1021.9
20260502213146 69 244 4.0 12.0 0.00 0.03 0.00 24 1022.0
20260502212542 68 217 4.0 12.0 0.00 0.03 0.00 25 1022.1
20260502212042 67 311 5.0 11.0 0.00 0.03 0.00 24 1022.1
20260502211544 66 232 2.0 9.0 0.00 0.03 0.00 26 1022.2
20260502211042 64 98 2.0 9.0 0.00 0.03 0.00 26 1022.3
20260502210541 63 86 4.0 9.0 0.00 0.03 0.00 27 1022.4
20260502210055 63 134 3.0 14.0 0.00 0.03 0.00 26 1022.4
20260502205542 63 184 4.0 14.0 0.00 0.03 0.00 26 1022.5
20260502205044 63 229 2.0 8.0 0.00 0.03 0.00 28 1022.6
20260502204549 63 241 2.0 7.0 0.00 0.03 0.00 27 1022.7
20260502204043 63 0 2.0 10.0 0.00 0.03 0.00 28 1022.7